Stations météo

réclame
Mon MeteoGroup
Spa/La Sauveniere, Belgique (6490): Température de l'air & dewpoint: 10.11.2018 00:00:00 - 16.11.2018 00:00:00 (CET)Spa/La Sauveniere, Belgique (6490): Vitesse du vent & gusts: 10.11.2018 00:00:00 - 16.11.2018 00:00:00 (CET)Spa/La Sauveniere, Belgique (6490): Direction du vent: 10.11.2018 00:00:00 - 16.11.2018 00:00:00 (CET)Spa/La Sauveniere, Belgique (6490): reduced air pressure: 10.11.2018 00:00:00 - 16.11.2018 00:00:00 (CET)Spa/La Sauveniere, Belgique (6490): visibility: 10.11.2018 00:00:00 - 16.11.2018 00:00:00 (CET)
Date & Time tt [°C] td [°C] ff [km/h] ff [knt] fx [km/h] fx [knt] dd ppp [hPa] vv [km]
16.11.2018 00:00:00 2,0 0,7 32 18 40 21 SSE 1026,9 5
15.11.2018 23:00:00 1,8 0,8 32 18 43 23 SSE 1026,3 1,2
15.11.2018 22:00:00 1,8 0,8 32 18 - - SSE 1026,3 1,3
15.11.2018 21:00:00 1,9 1,1 36 19 50 27 SSE 1025,9 0,8
15.11.2018 20:00:00 1,8 0,6 36 19 50 27 SSE 1026,0 0,9
15.11.2018 19:00:00 1,6 -0,6 36 19 - - SSE 1026,0 1,6
15.11.2018 18:00:00 3,5 -1,9 25 14 32 18 SSE 1026,0 22
15.11.2018 17:00:00 5,9 -1,0 25 14 32 18 SSE 1025,3 45
15.11.2018 16:00:00 9,0 -0,6 22 12 - - SSE 1024,7 45
15.11.2018 15:00:00 10,4 -1,2 22 12 29 16 SSE 1024,6 45
15.11.2018 14:00:00 10,6 0,4 22 12 29 16 SSE 1024,6 40
15.11.2018 13:00:00 9,9 1,9 18 10 - - SSE 1024,9 45
15.11.2018 12:00:00 8,1 1,8 22 12 36 19 SSE 1025,6 45
15.11.2018 11:00:00 7,4 1,8 29 16 36 19 SSE 1026,0 45
15.11.2018 10:00:00 5,7 1,9 25 14 - - SSE 1026,3 40
15.11.2018 09:00:00 5,0 1,8 29 16 36 19 SSE 1026,4 35
15.11.2018 08:00:00 5,3 1,9 29 16 36 19 SSE 1026,2 35
15.11.2018 07:00:00 5,7 3,4 29 16 - - SSE 1025,9 29
15.11.2018 06:00:00 5,9 3,6 29 16 36 19 SSE 1025,9 28
15.11.2018 05:00:00 5,7 2,9 29 16 36 19 SSE 1025,9 18
15.11.2018 04:00:00 5,6 3,9 29 16 - - SSE 1026,0 12
15.11.2018 03:00:00 5,4 3,9 29 16 36 19 SSE 1026,4 10
15.11.2018 02:00:00 5,8 3,3 29 16 36 19 SSE 1026,3 23
15.11.2018 01:00:00 5,9 4,1 29 16 - - SSE 1026,4 20
15.11.2018 00:00:00 6,1 3,0 29 16 36 19 SSE 1026,4 26
14.11.2018 23:00:00 6,1 4,2 25 14 36 19 SSE 1026,3 20
14.11.2018 22:00:00 6,4 4,5 25 14 - - SSE 1026,5 35
14.11.2018 21:00:00 6,7 4,5 25 14 40 21 SSE 1026,4 45
14.11.2018 20:00:00 7,1 4,5 25 14 40 21 SSE 1026,6 50
14.11.2018 19:00:00 6,9 2,9 22 12 - - SSE 1026,8 45
14.11.2018 18:00:00 7,4 2,7 18 10 32 18 S 1027,0 45
14.11.2018 17:00:00 8,3 2,9 18 10 29 16 SSE 1026,9 45
14.11.2018 16:00:00 9,4 4,1 18 10 - - SSE 1027,3 45
14.11.2018 15:00:00 9,7 5,0 18 10 29 16 SSE 1027,2 35
14.11.2018 14:00:00 8,7 4,9 18 10 40 21 SSE 1027,7 28
14.11.2018 13:00:00 7,8 4,6 25 14 - - SSE 1027,9 26
14.11.2018 12:00:00 6,4 4,9 22 12 40 21 SSE 1028,9 13
14.11.2018 11:00:00 5,3 4,2 25 14 36 19 SSE 1029,7 4,7
14.11.2018 10:00:00 4,6 3,2 25 14 - - SSE 1029,9 2,1
14.11.2018 09:00:00 3,7 2,4 18 10 29 16 SSE 1029,8 0,6
14.11.2018 08:00:00 3,3 3,0 18 10 29 16 SSE 1029,7 0,5
14.11.2018 07:00:00 3,4 1,6 22 12 - - SSE 1029,9 0,5
14.11.2018 06:00:00 3,5 1,1 22 12 25 14 SSE 1030,2 2,0
14.11.2018 05:00:00 - - - - - - - - -
14.11.2018 04:00:00 5,1 1,7 14 8 - - S 1030,6 12
14.11.2018 03:00:00 6,0 6,0 14 8 22 12 S 1030,7 14
14.11.2018 02:00:00 5,8 2,3 11 6 18 10 S 1031,0 17
14.11.2018 01:00:00 6,0 2,4 11 6 - - S 1031,1 18
14.11.2018 00:00:00 7,0 5,2 11 6 22 12 SSW 1030,7 27
13.11.2018 23:00:00 6,5 4,9 14 8 25 14 SSW 1030,7 22
13.11.2018 22:00:00 6,8 5,3 14 8 - - SSW 1030,5 25
13.11.2018 21:00:00 7,3 4,6 14 8 22 12 SSW 1030,2 30
13.11.2018 20:00:00 7,0 5,4 11 6 22 12 SSW 1030,0 29
13.11.2018 19:00:00 7,4 5,2 11 6 - - SSW 1029,4 35
13.11.2018 18:00:00 8,5 4,7 14 8 29 16 WSW 1029,0 35
13.11.2018 17:00:00 8,7 4,4 14 8 25 14 SW 1028,2 35
13.11.2018 16:00:00 9,1 4,5 14 8 - - WSW 1027,4 40
13.11.2018 15:00:00 9,1 4,0 14 8 32 18 W 1026,6 40
13.11.2018 14:00:00 9,3 5,0 18 10 47 25 WSW 1026,1 35
13.11.2018 13:00:00 9,3 5,1 18 10 - - SW 1025,5 35
13.11.2018 12:00:00 8,4 5,1 18 10 47 25 WSW 1025,6 40
13.11.2018 11:00:00 8,2 5,8 22 12 50 27 WSW 1025,1 35
13.11.2018 10:00:00 7,9 6,2 18 10 - - WSW 1024,4 35
13.11.2018 09:00:00 8,0 6,1 22 12 40 21 WSW 1023,7 22
13.11.2018 08:00:00 8,0 5,4 25 14 36 19 SW 1022,7 30
13.11.2018 07:00:00 7,7 6,1 18 10 - - SSW 1022,0 30
13.11.2018 06:00:00 7,8 6,1 14 8 29 16 SSW 1021,5 30
13.11.2018 05:00:00 7,5 5,8 14 8 29 16 S 1020,8 15
13.11.2018 04:00:00 7,6 4,5 14 8 - - S 1021,0 15
13.11.2018 03:00:00 7,4 6,0 14 8 32 18 S 1020,6 17
13.11.2018 02:00:00 7,5 5,8 18 10 32 18 S 1020,3 35
13.11.2018 01:00:00 7,5 6,7 18 10 - - S 1019,9 45
13.11.2018 00:00:00 7,5 7,5 7 4 18 10 SSE 1019,5 30
12.11.2018 23:00:00 7,8 4,4 11 6 22 12 S 1019,7 45
12.11.2018 22:00:00 7,7 4,0 7 4 - - S 1019,3 45
12.11.2018 21:00:00 7,9 7,9 7 4 14 8 SW 1019,0 45
12.11.2018 20:00:00 8,1 6,7 7 4 11 6 SSW 1018,4 40
12.11.2018 19:00:00 8,5 5,6 7 4 - - WSW 1018,3 45
12.11.2018 18:00:00 8,9 7,6 7 4 22 12 WSW 1016,9 35
12.11.2018 17:00:00 - - - - - - - - -
12.11.2018 16:00:00 10,7 9,6 7 4 - - W 1014,6 21
12.11.2018 15:00:00 9,5 8,7 4 2 29 16 W 1014,5 -
12.11.2018 14:00:00 12,2 10,7 18 10 36 19 WSW 1013,6 40
12.11.2018 13:00:00 12,9 10,1 14 8 - - SSW 1012,5 26
12.11.2018 12:00:00 13,7 10,4 18 10 36 19 SSW 1012,0 45
12.11.2018 11:00:00 12,8 10,0 25 14 43 23 S 1011,8 40
12.11.2018 10:00:00 12,4 9,8 25 14 - - S 1011,4 40
12.11.2018 09:00:00 10,7 9,0 22 12 32 18 S 1011,2 35
12.11.2018 08:00:00 9,6 8,2 22 12 32 18 SSE 1011,4 15
12.11.2018 07:00:00 9,1 7,8 14 8 - - SE 1012,0 17
12.11.2018 06:00:00 8,7 7,4 14 8 18 10 SE 1012,2 16
12.11.2018 05:00:00 8,7 7,8 7 4 18 10 SE 1012,5 9
12.11.2018 04:00:00 8,9 8,0 11 6 - - SSE 1013,0 8
12.11.2018 03:00:00 8,9 7,4 18 10 29 16 SSE 1013,0 23
12.11.2018 02:00:00 9,5 6,7 14 8 32 18 SSW 1013,1 50
12.11.2018 01:00:00 9,0 7,4 22 12 - - S 1013,0 50
12.11.2018 00:00:00 8,6 7,1 18 10 32 18 S 1012,8 18
11.11.2018 23:00:00 8,7 7,5 14 8 25 14 S 1012,7 50
11.11.2018 22:00:00 8,5 5,1 11 6 - - SSW 1012,6 50
11.11.2018 21:00:00 8,7 6,7 18 10 36 19 S 1011,4 30
11.11.2018 20:00:00 8,9 6,7 22 12 43 23 SSW 1011,0 40
11.11.2018 19:00:00 8,6 6,7 25 14 - - S 1010,2 13
11.11.2018 18:00:00 9,4 7,4 25 14 43 23 S 1009,8 30
11.11.2018 17:00:00 - - - - - - - - -
11.11.2018 16:00:00 9,3 7,8 22 12 - - S 1008,8 30
11.11.2018 15:00:00 9,1 7,8 22 12 36 19 S 1008,8 6
11.11.2018 14:00:00 9,4 8,0 18 10 36 19 SSW 1008,9 8
11.11.2018 13:00:00 10,3 6,9 22 12 - - SSW 1008,3 25
11.11.2018 12:00:00 10,4 7,0 25 14 47 25 SSW 1007,7 30
11.11.2018 11:00:00 9,7 6,6 22 12 40 21 SSW 1007,0 30
11.11.2018 10:00:00 9,2 6,1 22 12 - - SSW 1007,0 45
11.11.2018 09:00:00 8,8 6,6 22 12 40 21 S 1006,4 45
11.11.2018 08:00:00 8,5 6,8 18 10 40 21 SSW 1005,8 45
11.11.2018 07:00:00 8,3 6,7 25 14 - - S 1005,0 14
11.11.2018 06:00:00 8,7 5,9 22 12 40 21 SSW 1005,1 22
11.11.2018 05:00:00 - - - - - - - - -
11.11.2018 04:00:00 9,0 6,8 22 12 - - SSW 1004,6 27
11.11.2018 03:00:00 9,1 6,1 18 10 40 21 SSW 1005,0 23
11.11.2018 02:00:00 9,2 6,3 18 10 36 19 S 1004,7 20
11.11.2018 01:00:00 9,6 7,9 18 10 - - S 1004,5 40
11.11.2018 00:00:00 9,5 7,9 18 10 32 18 S 1004,4 45
10.11.2018 23:00:00 9,6 8,0 18 10 32 18 S 1004,5 40
10.11.2018 22:00:00 9,7 8,2 18 10 - - SSW 1004,2 45
10.11.2018 21:00:00 10,1 8,6 22 12 40 21 SSW 1003,8 45
10.11.2018 20:00:00 10,2 8,8 22 12 32 18 S 1003,2 35
10.11.2018 19:00:00 10,4 9,2 18 10 - - S 1003,5 13
10.11.2018 18:00:00 10,4 9,1 18 10 32 18 S 1003,1 8
10.11.2018 17:00:00 - - - - - - - - -
10.11.2018 16:00:00 10,5 9,2 18 10 - - SSW 1002,8 8
10.11.2018 15:00:00 10,8 9,2 25 14 43 23 S 1002,5 45
10.11.2018 14:00:00 10,5 9,0 22 12 40 21 S 1002,9 20
10.11.2018 13:00:00 10,1 8,7 22 12 - - S 1003,4 29
10.11.2018 12:00:00 9,8 8,3 18 10 47 25 SSW 1004,5 22
10.11.2018 11:00:00 9,9 8,5 18 10 36 19 S 1004,5 14
10.11.2018 10:00:00 9,8 8,2 18 10 - - S 1004,5 23
10.11.2018 09:00:00 9,7 8,2 22 12 40 21 S 1004,1 10
10.11.2018 08:00:00 9,9 8,3 18 10 43 23 S 1003,9 24
10.11.2018 07:00:00 10,7 7,1 25 14 - - S 1003,1 45
10.11.2018 06:00:00 11,2 7,0 25 14 47 25 S 1002,9 30
10.11.2018 05:00:00 - - - - - - - - -
10.11.2018 04:00:00 11,0 7,1 25 14 - - S 1003,7 40
10.11.2018 03:00:00 10,0 6,6 25 14 40 21 S 1004,6 45
10.11.2018 02:00:00 10,0 6,6 22 12 40 21 S 1005,5 45
10.11.2018 01:00:00 9,3 7,5 14 8 - - S 1006,8 40
10.11.2018 00:00:00 9,1 7,2 22 12 36 19 S 1007,9 26

tt = Température de l'air
td = dewpoint
ff = Vitesse du vent
fx = gusts
dd = Direction du vent
ppp = reduced air pressure
vv = visibility

stations d'obs. à proximité